Time,TemperatureF,DewpointF,PressureIn,WindDirection,WindDirectionDegrees,WindSpeedMPH,WindSpeedGustMPH,Humidity,HourlyPrecipIn,Conditions,Clouds,dailyrainin,SoftwareType,DateUTC
2013-01-30 00:02:00,32.0,32.0,29.69,NNW,340,18.0,-999.0,100,-99.99,,,-99.99,,2013-01-30 06:02:00,
2013-01-30 00:11:00,32.0,32.0,29.69,NNW,330,16.0,-999.0,100,-99.99,,,-99.99,,2013-01-30 06:11:00,
2013-01-30 00:21:00,32.0,32.0,29.69,NNW,330,16.0,25.0,100,-99.99,,,-99.99,,2013-01-30 06:21:00,
2013-01-30 00:32:00,32.0,30.0,29.70,NNW,330,17.0,25.0,92,-99.99,,,-99.99,,2013-01-30 06:32:00,
2013-01-30 00:41:00,32.0,30.0,29.70,NNW,330,17.0,23.0,92,-99.99,,,-99.99,,2013-01-30 06:41:00,
2013-01-30 00:51:00,30.0,30.0,29.70,NNW,330,17.0,-999.0,100,-99.99,,,-99.99,,2013-01-30 06:51:00,
2013-01-30 01:02:00,30.0,30.0,29.70,NNW,330,17.0,-999.0,100,-99.99,,,-99.99,,2013-01-30 07:02:00,
2013-01-30 01:11:00,30.0,30.0,29.71,NNW,330,18.0,22.0,100,-99.99,,,-99.99,,2013-01-30 07:11:00,
2013-01-30 01:21:00,30.0,30.0,29.72,NW,320,15.0,-999.0,100,-99.99,,,-99.99,,2013-01-30 07:21:00,
2013-01-30 01:31:00,30.0,30.0,29.72,NW,320,16.0,-999.0,100,-99.99,,,-99.99,,2013-01-30 07:31:00,
2013-01-30 01:41:00,30.0,30.0,29.72,NNW,330,18.0,22.0,100,-99.99,,,-99.99,,2013-01-30 07:41:00,
2013-01-30 01:52:00,30.0,30.0,29.73,NNW,330,16.0,22.0,100,-99.99,,,-99.99,,2013-01-30 07:52:00,
2013-01-30 02:01:00,30.0,30.0,29.73,NNW,330,16.0,22.0,100,-99.99,,,-99.99,,2013-01-30 08:01:00,
2013-01-30 02:11:00,30.0,30.0,29.74,NNW,330,13.0,-999.0,100,-99.99,,,-99.99,,2013-01-30 08:11:00,
2013-01-30 02:21:00,30.0,30.0,29.74,NNW,330,14.0,-999.0,100,-99.99,,,-99.99,,2013-01-30 08:21:00,
2013-01-30 02:32:00,30.0,30.0,29.75,NW,320,12.0,-999.0,100,-99.99,,,-99.99,,2013-01-30 08:32:00,
2013-01-30 02:42:00,30.0,30.0,29.75,NW,320,17.0,22.0,100,-99.99,,,-99.99,,2013-01-30 08:42:00,
2013-01-30 02:52:00,30.0,30.0,29.76,NNW,330,16.0,-999.0,100,-99.99,,,-99.99,,2013-01-30 08:52:00,
2013-01-30 03:01:00,30.0,30.0,29.76,NNW,330,16.0,-999.0,100,-99.99,,,-99.99,,2013-01-30 09:01:00,
2013-01-30 03:11:00,30.0,28.0,29.76,NNW,330,18.0,27.0,92,-99.99,,,-99.99,,2013-01-30 09:11:00,
2013-01-30 03:21:00,30.0,30.0,29.77,NNW,330,10.0,-999.0,100,-99.99,,,-99.99,,2013-01-30 09:21:00,
2013-01-30 03:32:00,30.0,28.0,29.77,NNW,340,16.0,29.0,92,-99.99,,,-99.99,,2013-01-30 09:32:00,
2013-01-30 03:42:00,30.0,30.0,29.77,NNW,340,15.0,-999.0,100,-99.99,,,-99.99,,2013-01-30 09:42:00,
2013-01-30 03:51:00,30.0,30.0,29.77,NNW,330,25.0,30.0,100,-99.99,,,-99.99,,2013-01-30 09:51:00,
2013-01-30 04:01:00,30.0,30.0,29.77,NNW,330,25.0,30.0,100,-99.99,,,-99.99,,2013-01-30 10:01:00,
2013-01-30 04:11:00,28.0,27.0,29.78,NNW,330,23.0,32.0,92,-99.99,,,-99.99,,2013-01-30 10:11:00,
2013-01-30 04:21:00,28.0,27.0,29.79,NNW,340,18.0,-999.0,92,-99.99,,,-99.99,,2013-01-30 10:21:00,
2013-01-30 04:32:00,28.0,27.0,29.79,NNW,330,23.0,33.0,92,-99.99,,,-99.99,,2013-01-30 10:32:00,
2013-01-30 04:41:00,27.0,25.0,29.80,NNW,330,28.0,35.0,92,-99.99,,,-99.99,,2013-01-30 10:41:00,
2013-01-30 04:52:00,27.0,23.0,29.80,NNW,330,24.0,31.0,86,-99.99,,,-99.99,,2013-01-30 10:52:00,
2013-01-30 05:02:00,27.0,23.0,29.80,NNW,330,24.0,31.0,86,-99.99,,,-99.99,,2013-01-30 11:02:00,
2013-01-30 05:11:00,27.0,21.0,29.81,NNW,330,22.0,31.0,79,-99.99,,,-99.99,,2013-01-30 11:11:00,
2013-01-30 05:22:00,27.0,23.0,29.82,NNW,330,24.0,29.0,86,-99.99,,,-99.99,,2013-01-30 11:22:00,
2013-01-30 05:32:00,27.0,23.0,29.82,NNW,330,24.0,32.0,86,-99.99,,,-99.99,,2013-01-30 11:32:00,
2013-01-30 05:42:00,27.0,21.0,29.83,NNW,330,24.0,31.0,79,-99.99,,,-99.99,,2013-01-30 11:42:00,
2013-01-30 05:52:00,25.0,21.0,29.84,NNW,330,28.0,33.0,85,-99.99,,,-99.99,,2013-01-30 11:52:00,
2013-01-30 06:02:00,25.0,21.0,29.84,NNW,330,28.0,33.0,85,-99.99,,,-99.99,,2013-01-30 12:02:00,
2013-01-30 06:12:00,25.0,19.0,29.86,NNW,330,23.0,32.0,79,-99.99,,,-99.99,,2013-01-30 12:12:00,
2013-01-30 06:22:00,25.0,19.0,29.86,NW,320,16.0,25.0,79,-99.99,,,-99.99,,2013-01-30 12:22:00,
2013-01-30 06:32:00,25.0,19.0,29.86,NNW,330,22.0,27.0,79,-99.99,,,-99.99,,2013-01-30 12:32:00,
2013-01-30 06:42:00,25.0,19.0,29.87,NNW,330,23.0,30.0,79,-99.99,,,-99.99,,2013-01-30 12:42:00,
2013-01-30 07:03:00,25.0,19.0,29.87,NW,320,22.0,30.0,79,-99.99,,,-99.99,,2013-01-30 13:03:00,
2013-01-30 07:12:00,25.0,19.0,29.88,NW,320,21.0,27.0,79,-99.99,,,-99.99,,2013-01-30 13:12:00,
2013-01-30 07:22:00,25.0,19.0,29.89,NW,320,16.0,30.0,79,-99.99,,,-99.99,,2013-01-30 13:22:00,
2013-01-30 07:32:00,25.0,18.0,29.89,NNW,330,18.0,25.0,73,-99.99,,,-99.99,,2013-01-30 13:32:00,
2013-01-30 07:42:00,23.0,18.0,29.90,NNW,330,14.0,25.0,79,-99.99,,,-99.99,,2013-01-30 13:42:00,
2013-01-30 07:52:00,23.0,18.0,29.91,NNW,330,17.0,25.0,79,-99.99,,,-99.99,,2013-01-30 13:52:00,
2013-01-30 08:02:00,23.0,18.0,29.91,NNW,330,17.0,25.0,79,-99.99,,,-99.99,,2013-01-30 14:02:00,
2013-01-30 08:12:00,21.0,18.0,29.91,NW,320,13.0,20.0,85,-99.99,,,-99.99,,2013-01-30 14:12:00,
2013-01-30 08:22:00,21.0,16.0,29.92,NW,320,13.0,-999.0,79,-99.99,,,-99.99,,2013-01-30 14:22:00,
2013-01-30 08:32:00,21.0,16.0,29.93,NW,310,10.0,-999.0,79,-99.99,,,-99.99,,2013-01-30 14:32:00,
2013-01-30 08:42:00,21.0,16.0,29.93,NW,310,10.0,-999.0,79,-99.99,,,-99.99,,2013-01-30 14:42:00,
2013-01-30 08:52:00,21.0,18.0,29.93,NW,310,12.0,-999.0,85,-99.99,,,-99.99,,2013-01-30 14:52:00,
2013-01-30 09:03:00,21.0,18.0,29.93,NW,310,12.0,-999.0,85,-99.99,,,-99.99,,2013-01-30 15:03:00,
2013-01-30 09:12:00,23.0,18.0,29.94,NW,310,10.0,-999.0,79,-99.99,,,-99.99,,2013-01-30 15:12:00,
2013-01-30 09:23:00,23.0,18.0,29.94,NW,310,9.0,-999.0,79,-99.99,,,-99.99,,2013-01-30 15:23:00,
2013-01-30 09:33:00,23.0,16.0,29.94,NW,310,14.0,-999.0,73,-99.99,,,-99.99,,2013-01-30 15:33:00,
2013-01-30 09:43:00,23.0,16.0,29.94,NW,320,13.0,-999.0,73,-99.99,,,-99.99,,2013-01-30 15:43:00,
2013-01-30 09:52:00,23.0,18.0,29.94,NW,320,12.0,-999.0,79,-99.99,,,-99.99,,2013-01-30 15:52:00,
2013-01-30 10:03:00,23.0,18.0,29.94,NW,320,12.0,-999.0,79,-99.99,,,-99.99,,2013-01-30 16:03:00,
2013-01-30 10:12:00,25.0,18.0,29.94,NW,320,13.0,18.0,73,-99.99,,,-99.99,,2013-01-30 16:12:00,
2013-01-30 10:23:00,25.0,18.0,29.94,NW,310,10.0,17.0,73,-99.99,,,-99.99,,2013-01-30 16:23:00,
2013-01-30 10:32:00,25.0,18.0,29.94,NW,310,10.0,16.0,73,-99.99,,,-99.99,,2013-01-30 16:32:00,
2013-01-30 10:42:00,25.0,18.0,29.94,WNW,300,12.0,-999.0,73,-99.99,,,-99.99,,2013-01-30 16:42:00,
2013-01-30 10:52:00,27.0,18.0,29.95,NW,310,14.0,21.0,68,-99.99,,,-99.99,,2013-01-30 16:52:00,
2013-01-30 11:02:00,27.0,18.0,29.95,NW,310,14.0,21.0,68,-99.99,,,-99.99,,2013-01-30 17:02:00,
2013-01-30 11:12:00,25.0,18.0,29.94,NW,310,14.0,20.0,73,-99.99,,,-99.99,,2013-01-30 17:12:00,
2013-01-30 11:22:00,27.0,18.0,29.94,NW,310,14.0,18.0,68,-99.99,,,-99.99,,2013-01-30 17:22:00,
2013-01-30 11:32:00,27.0,18.0,29.94,NW,310,14.0,21.0,68,-99.99,,,-99.99,,2013-01-30 17:32:00,
2013-01-30 11:42:00,27.0,18.0,29.94,NW,310,14.0,18.0,68,-99.99,,,-99.99,,2013-01-30 17:42:00,
2013-01-30 11:53:00,27.0,18.0,29.95,WNW,300,14.0,20.0,68,-99.99,,,-99.99,,2013-01-30 17:53:00,
2013-01-30 12:02:00,27.0,18.0,29.95,WNW,300,14.0,20.0,68,-99.99,,,-99.99,,2013-01-30 18:02:00,
2013-01-30 12:12:00,27.0,18.0,29.95,NW,310,12.0,18.0,68,-99.99,,,-99.99,,2013-01-30 18:12:00,
2013-01-30 12:22:00,27.0,18.0,29.94,WNW,300,10.0,-999.0,68,-99.99,,,-99.99,,2013-01-30 18:22:00,
2013-01-30 12:33:00,27.0,18.0,29.94,WNW,300,12.0,18.0,68,-99.99,,,-99.99,,2013-01-30 18:33:00,
2013-01-30 12:42:00,27.0,18.0,29.94,NW,310,14.0,18.0,68,-99.99,,,-99.99,,2013-01-30 18:42:00,
2013-01-30 12:52:00,27.0,18.0,29.93,WNW,290,13.0,-999.0,68,-99.99,,,-99.99,,2013-01-30 18:52:00,
2013-01-30 13:02:00,27.0,18.0,29.93,WNW,290,13.0,-999.0,68,-99.99,,,-99.99,,2013-01-30 19:02:00,
2013-01-30 13:12:00,27.0,19.0,29.93,WNW,290,13.0,16.0,73,-99.99,,,-99.99,,2013-01-30 19:12:00,
2013-01-30 13:22:00,27.0,18.0,29.92,WNW,290,12.0,-999.0,68,-99.99,,,-99.99,,2013-01-30 19:22:00,
2013-01-30 13:32:00,28.0,18.0,29.93,WNW,300,13.0,-999.0,63,-99.99,,,-99.99,,2013-01-30 19:32:00,
2013-01-30 13:42:00,27.0,18.0,29.93,WNW,290,14.0,21.0,68,-99.99,,,-99.99,,2013-01-30 19:42:00,
2013-01-30 13:52:00,28.0,18.0,29.92,West,280,14.0,18.0,63,-99.99,,,-99.99,,2013-01-30 19:52:00,
2013-01-30 14:03:00,28.0,18.0,29.92,West,280,14.0,18.0,63,-99.99,,,-99.99,,2013-01-30 20:03:00,
2013-01-30 14:11:00,28.0,16.0,29.91,WNW,300,12.0,20.0,58,-99.99,,,-99.99,,2013-01-30 20:11:00,
2013-01-30 14:22:00,28.0,18.0,29.91,WNW,290,12.0,-999.0,63,-99.99,,,-99.99,,2013-01-30 20:22:00,
2013-01-30 14:33:00,28.0,18.0,29.91,NW,310,10.0,17.0,63,-99.99,,,-99.99,,2013-01-30 20:33:00,
2013-01-30 14:42:00,28.0,18.0,29.91,WNW,300,9.0,17.0,63,-99.99,,,-99.99,,2013-01-30 20:42:00,
2013-01-30 14:52:00,28.0,18.0,29.91,WNW,300,10.0,-999.0,63,-99.99,,,-99.99,,2013-01-30 20:52:00,
2013-01-30 15:03:00,28.0,18.0,29.91,WNW,300,10.0,-999.0,63,-99.99,,,-99.99,,2013-01-30 21:03:00,
2013-01-30 15:12:00,28.0,18.0,29.91,WNW,300,12.0,-999.0,63,-99.99,,,-99.99,,2013-01-30 21:12:00,
2013-01-30 15:22:00,28.0,18.0,29.91,WNW,300,13.0,-999.0,63,-99.99,,,-99.99,,2013-01-30 21:22:00,
2013-01-30 15:32:00,28.0,18.0,29.91,West,280,10.0,-999.0,63,-99.99,,,-99.99,,2013-01-30 21:32:00,
2013-01-30 15:42:00,28.0,18.0,29.92,WNW,290,10.0,-999.0,63,-99.99,,,-99.99,,2013-01-30 21:42:00,
2013-01-30 15:52:00,28.0,16.0,29.92,WNW,290,12.0,-999.0,58,-99.99,,,-99.99,,2013-01-30 21:52:00,
2013-01-30 16:03:00,28.0,16.0,29.92,WNW,290,12.0,-999.0,58,-99.99,,,-99.99,,2013-01-30 22:03:00,
2013-01-30 16:12:00,28.0,16.0,29.92,WNW,290,7.0,10.0,58,-99.99,,,-99.99,,2013-01-30 22:12:00,
2013-01-30 16:22:00,28.0,16.0,29.92,WNW,300,7.0,-999.0,58,-99.99,,,-99.99,,2013-01-30 22:22:00,
2013-01-30 16:32:00,28.0,18.0,29.92,WNW,290,6.0,-999.0,63,-99.99,,,-99.99,,2013-01-30 22:32:00,
2013-01-30 16:42:00,28.0,18.0,29.92,WNW,290,5.0,-999.0,63,-99.99,,,-99.99,,2013-01-30 22:42:00,
2013-01-30 16:52:00,27.0,18.0,29.93,WNW,290,3.0,-999.0,68,-99.99,,,-99.99,,2013-01-30 22:52:00,
2013-01-30 17:02:00,27.0,18.0,29.93,WNW,290,3.0,-999.0,68,-99.99,,,-99.99,,2013-01-30 23:02:00,
2013-01-30 17:12:00,27.0,18.0,29.93,West,280,5.0,-999.0,68,-99.99,,,-99.99,,2013-01-30 23:12:00,
2013-01-30 17:22:00,27.0,18.0,29.92,North,0,0.0,-999.0,68,-99.99,,,-99.99,,2013-01-30 23:22:00,
2013-01-30 17:32:00,27.0,16.0,29.92,North,0,0.0,-999.0,63,-99.99,,,-99.99,,2013-01-30 23:32:00,
2013-01-30 17:42:00,25.0,16.0,29.92,North,0,0.0,-999.0,68,-99.99,,,-99.99,,2013-01-30 23:42:00,
2013-01-30 17:52:00,25.0,16.0,29.92,North,0,0.0,-999.0,68,-99.99,,,-99.99,,2013-01-30 23:52:00,
2013-01-30 18:02:00,25.0,16.0,29.92,North,0,0.0,-999.0,68,-99.99,,,-99.99,,2013-01-31 00:02:00,
2013-01-30 18:11:00,25.0,16.0,29.92,North,0,0.0,-999.0,68,-99.99,,,-99.99,,2013-01-31 00:11:00,
2013-01-30 18:21:00,25.0,16.0,29.92,North,0,0.0,-999.0,68,-99.99,,,-99.99,,2013-01-31 00:21:00,
2013-01-30 18:32:00,25.0,16.0,29.92,SSW,210,3.0,-999.0,68,-99.99,,,-99.99,,2013-01-31 00:32:00,
2013-01-30 18:42:00,19.0,14.0,29.92,South,180,3.0,-999.0,79,-99.99,,,-99.99,,2013-01-31 00:42:00,
2013-01-30 18:52:00,21.0,16.0,29.92,South,170,3.0,-999.0,79,-99.99,,,-99.99,,2013-01-31 00:52:00,
2013-01-30 19:02:00,21.0,16.0,29.92,South,170,3.0,-999.0,79,-99.99,,,-99.99,,2013-01-31 01:02:00,
2013-01-30 19:11:00,21.0,16.0,29.91,SSE,150,3.0,-999.0,79,-99.99,,,-99.99,,2013-01-31 01:11:00,
2013-01-30 19:21:00,18.0,12.0,29.91,SSE,150,3.0,-999.0,78,-99.99,,,-99.99,,2013-01-31 01:21:00,
2013-01-30 19:31:00,19.0,16.0,29.91,North,0,0.0,-999.0,85,-99.99,,,-99.99,,2013-01-31 01:31:00,
2013-01-30 19:41:00,16.0,12.0,29.91,SSE,150,3.0,-999.0,85,-99.99,,,-99.99,,2013-01-31 01:41:00,
2013-01-30 19:52:00,18.0,14.0,29.91,North,0,0.0,-999.0,85,-99.99,,,-99.99,,2013-01-31 01:52:00,
2013-01-30 20:01:00,18.0,14.0,29.91,North,0,0.0,-999.0,85,-99.99,,,-99.99,,2013-01-31 02:01:00,
2013-01-30 20:11:00,18.0,14.0,29.92,North,0,0.0,-999.0,85,-99.99,,,-99.99,,2013-01-31 02:11:00,
2013-01-30 20:21:00,18.0,14.0,29.93,North,0,0.0,-999.0,85,-99.99,,,-99.99,,2013-01-31 02:21:00,
2013-01-30 20:32:00,16.0,12.0,29.93,North,0,0.0,-999.0,85,-99.99,,,-99.99,,2013-01-31 02:32:00,
2013-01-30 20:41:00,16.0,12.0,29.93,North,0,0.0,-999.0,85,-99.99,,,-99.99,,2013-01-31 02:41:00,
2013-01-30 20:52:00,16.0,12.0,29.93,North,0,0.0,-999.0,85,-99.99,,,-99.99,,2013-01-31 02:52:00,
2013-01-30 21:03:00,16.0,12.0,29.93,North,0,0.0,-999.0,85,-99.99,,,-99.99,,2013-01-31 03:03:00,
2013-01-30 21:11:00,16.0,12.0,29.92,SE,140,5.0,-999.0,85,-99.99,,,-99.99,,2013-01-31 03:11:00,
2013-01-30 21:21:00,18.0,12.0,29.92,SE,140,3.0,-999.0,78,-99.99,,,-99.99,,2013-01-31 03:21:00,
2013-01-30 21:32:00,16.0,12.0,29.92,SE,140,5.0,-999.0,85,-99.99,,,-99.99,,2013-01-31 03:32:00,
2013-01-30 21:41:00,18.0,12.0,29.91,SE,140,5.0,-999.0,78,-99.99,,,-99.99,,2013-01-31 03:41:00,
2013-01-30 21:51:00,16.0,12.0,29.91,SE,140,5.0,-999.0,85,-99.99,,,-99.99,,2013-01-31 03:51:00,
2013-01-30 22:02:00,16.0,12.0,29.91,SE,140,5.0,-999.0,85,-99.99,,,-99.99,,2013-01-31 04:02:00,
2013-01-30 22:11:00,14.0,12.0,29.91,SE,140,5.0,-999.0,92,-99.99,,,-99.99,,2013-01-31 04:11:00,
2013-01-30 22:22:00,16.0,12.0,29.90,SSE,150,3.0,-999.0,85,-99.99,,,-99.99,,2013-01-31 04:22:00,
2013-01-30 22:31:00,16.0,12.0,29.90,SSE,160,6.0,-999.0,85,-99.99,,,-99.99,,2013-01-31 04:31:00,
2013-01-30 22:41:00,16.0,12.0,29.90,SSE,160,5.0,-999.0,85,-99.99,,,-99.99,,2013-01-31 04:41:00,
2013-01-30 22:51:00,16.0,12.0,29.89,SSE,160,5.0,-999.0,85,-99.99,,,-99.99,,2013-01-31 04:51:00,
2013-01-30 23:03:00,16.0,12.0,29.89,SSE,160,5.0,-999.0,85,-99.99,,,-99.99,,2013-01-31 05:03:00,
2013-01-30 23:11:00,12.0,10.0,29.90,South,170,3.0,-999.0,92,-99.99,,,-99.99,,2013-01-31 05:11:00,
2013-01-30 23:22:00,12.0,10.0,29.90,SSE,160,3.0,-999.0,92,-99.99,,,-99.99,,2013-01-31 05:22:00,
2013-01-30 23:32:00,12.0,10.0,29.90,SSE,160,3.0,-999.0,92,-99.99,,,-99.99,,2013-01-31 05:32:00,
2013-01-30 23:41:00,16.0,12.0,29.90,North,0,0.0,-999.0,85,-99.99,,,-99.99,,2013-01-31 05:41:00,
2013-01-30 23:51:00,16.0,12.0,29.90,North,0,0.0,-999.0,85,-99.99,,,-99.99,,2013-01-31 05:51:00,